STARLINK-3052, 49165

Orbit data source: Space-Track

STARLINK-3052, 49165 is a payload satellite owned by SpaceX/Seattle (US) in LEO that was launched on Tue, 14 Sep 2021 UTC via an FALCON 9 launch vehicle from the Air Force Western Test Range (AFWTR). Payload-class satellites include a variety of spacecraft equipped with specific instruments for various scientific and technological missions. These include communications satellites like Starlink; space stations such as the ISS; scientific satellites like the Hubble; Earth observation satellites from companies like Planet Labs, Umbra, and HawkEye 360; GPS; miniature CubeSats for education and research; and military/defense satellites.

Loading next visibility...
Identifier
49165, 2021-082AM
Orbit
LEO
Country
Flag of USUS
Related business
Manufacturer
SpaceX/Seattle
Mission
Operational Commercial Communications
Bus & Motor
STARLINK, Unknown motor
Mass
297 kg wet, ~275 kg dry
Launch date (UTC)
2021-09-14 (4 years ago)
Launch vehicle
FALCON 9
Launch site
Air Force Western Test Range (AFWTR)
Object type
Payload
Rocket body
Debris
Shape & HBR
Box + 1 Pan, 10.1 m
Radar Cross Section
13.562 m², Large (>1 m²)

Expand to show TLE details & history
Last TLE update: 7 hours ago

TLE from 7 hours ago
0 STARLINK-3052
1 49165U 21082AM  25310.76711622  .00003171  00000-0  27336-3 0  9997
2 49165  69.9990 244.3969 0003004 268.1815  91.9000 14.98343593228767
Epoch: 2025-11-06T18:24Z
TLE epoch observation values (Epoch: 2025-11-06T18:24:38.841Z)
Latitude
-0.00002°
Longitude
-77.98566°
Altitude
574.508 km
Speed
7.574 km/s
True Right ascension
16h 17m 35s
True Declination
0° 00' 00"
Sunlit
Object was in daylight at epoch
Visualization orbit readout
Latitude
Unknown
Longitude
Unknown
Altitude
Unknown
Speed
Unknown
Apparent Right ascension
Unknown
Apparent Declination
Unknown
Sunlit
N/A
Visualization observer readout
Local Sidereal Time
21:22:43
Azimuth
Unknown
Elevation
Unknown
Doppler factor
Unknown
Orbital elements
Apogee altitude
572.049 km
Perigee altitude
567.875 km
Semi-major axis
6,948.099 km
Eccentricity
0.0003
Inclination
69.999°
RAAN
244.3969°
Arg. of periapsis
268.1815°
True anomaly
91.9344°
Mean anomaly
91.9°
Eccentric anomaly
91.9172°
Mean motion
3.74752 °/min
Orbital period
96.06 mins
BSTAR
0.00027336
Loading maneuver chart data...
Computing Atmospheric mass density...

Documentation

Showing up to 5 results
|